Time[GMT],current_u[cm/s](10m),current_v[cm/s](10m),current_u[cm/s](14m),current_v[cm/s](14m),current_u[cm/s](18m),current_v[cm/s](18m),current_u[cm/s](22m),current_v[cm/s](22m),current_u[cm/s](26m),current_v[cm/s](26m),current_u[cm/s](30m),current_v[cm/s](30m),current_u[cm/s](34m),current_v[cm/s](34m),current_u[cm/s](38m),current_v[cm/s](38m),current_u[cm/s](42m),current_v[cm/s](42m),current_u[cm/s](46m),current_v[cm/s](46m),current_u[cm/s](50m),current_v[cm/s](50m),current_u[cm/s](54m),current_v[cm/s](54m)
2010-06-04 05:00,-7.58,-6.49,-6.40,-10.52,-1.76,-5.73,0.02,-3.64,0.22,-4.31,1.85,-2.06,3.04,0.99,1.99,1.73,1.63,3.71,1.36,2.48,2.45,3.74,2.24,5.87
2010-06-04 06:00,-9.67,2.07,-10.02,-0.64,-4.63,-2.71,-0.69,0.22,1.62,-0.57,1.54,-0.28,4.83,1.31,5.86,4.53,6.93,5.15,7.73,4.55,6.08,2.72,6.72,3.74
2010-06-04 07:00,-15.46,-3.79,-15.60,-5.81,-12.28,-11.09,-7.22,-11.28,-5.45,-9.51,-4.64,-7.30,-1.70,-9.15,0.40,-7.07,1.07,-6.15,1.51,-6.95,-0.19,-8.60,0.50,-7.77
2010-06-04 08:00,-6.80,0.10,-10.14,-5.57,-7.48,-11.46,-5.32,-11.04,-1.74,-11.87,-0.51,-9.32,1.57,-13.19,3.06,-12.96,3.68,-10.80,3.39,-10.16,3.16,-9.39,2.41,-10.03
2010-06-04 09:00,-1.43,2.40,-8.19,0.21,-10.04,-7.00,-5.53,-9.22,-2.07,-8.94,-4.64,-7.30,-5.03,-7.72,-2.89,-10.43,-0.46,-11.60,0.17,-9.12,1.67,-9.62,0.67,-7.62
2010-06-04 10:00,0.74,-8.22,-4.19,-2.06,-9.28,-6.05,-7.89,-10.43,-5.20,-11.42,-6.82,-10.54,-7.52,-9.91,-5.47,-13.37,-3.88,-14.89,-2.38,-16.43,-1.42,-16.15,-2.65,-15.15
2010-06-04 11:00,5.19,1.83,4.06,5.35,0.18,4.74,-2.14,0.21,-2.35,-0.17,-4.50,3.27,-4.95,3.03,-3.80,-0.17,-0.81,-2.22,1.25,-2.14,2.30,-3.60,1.42,-3.44
2010-06-04 12:00,5.80,-9.87,7.95,-4.03,4.62,-2.61,1.14,-6.75,1.28,-7.23,0.17,-3.08,-1.39,-3.43,0.11,-6.43,1.03,-8.14,1.32,-9.51,2.94,-10.39,2.36,-12.33
2010-06-04 13:00,3.46,-12.53,6.12,-6.34,5.61,-2.42,3.28,-4.46,0.85,-6.84,1.81,-4.05,0.62,-2.11,-0.94,-3.92,-0.96,-6.32,-1.26,-7.45,-1.17,-8.47,-1.70,-9.15
2010-06-04 14:00,1.56,-10.69,9.39,-6.11,9.49,-1.81,5.69,-3.44,3.42,-4.21,4.72,-0.81,3.36,0.98,2.23,-0.49,1.29,-1.92,0.53,-2.87,-0.68,-3.01,-0.41,-2.52
2010-06-04 15:00,-2.63,-5.25,7.85,-8.33,10.77,-4.04,6.02,-1.36,3.70,-3.40,4.18,-0.76,6.50,2.00,4.20,1.33,1.88,0.34,1.84,-0.61,1.65,0.07,2.47,1.87
2010-06-04 16:00,-3.92,-4.06,3.87,-10.75,7.03,-7.64,3.80,-4.10,0.67,-4.08,2.03,-1.59,4.41,-0.48,3.22,-1.04,1.30,-0.87,1.96,0.05,1.57,1.40,0.97,2.37
2010-06-04 17:00,-6.56,9.96,-3.32,-3.26,1.64,-5.98,1.79,-2.91,-1.72,-0.19,-1.20,3.40,2.01,3.09,0.67,2.70,0.98,3.41,0.83,5.35,1.67,4.97,1.66,5.38
2010-06-04 18:00,-6.58,6.83,-10.03,-3.45,-4.93,-7.38,-2.31,-5.99,-3.39,-2.66,-2.58,0.29,-0.47,0.18,-1.83,0.19,-1.28,-0.27,-0.72,2.81,-1.11,3.43,-0.09,3.52
2010-06-04 19:00,-5.03,-2.41,-10.77,-9.50,-6.53,-12.22,-4.44,-10.47,-4.66,-7.93,-2.85,-5.21,-2.54,-6.27,-3.92,-5.83,-2.78,-6.54,-3.75,-4.64,-4.51,-3.82,-2.63,-2.75
2010-06-04 20:00,-6.49,2.58,-10.55,-3.82,-8.94,-4.70,-9.35,-3.67,-7.21,-3.15,-5.44,-2.42,-5.72,-3.24,-5.74,-1.05,-6.94,0.58,-7.80,-0.41,-7.43,-1.65,-7.60,-1.08
2010-06-04 21:00,-2.16,-4.38,-8.37,-5.57,-8.80,-7.68,-6.55,-6.81,-5.86,-7.76,-2.89,-7.20,-1.80,-8.45,-0.76,-8.45,-1.49,-5.96,-2.44,-4.47,-2.24,-4.82,-2.23,-5.55
2010-06-04 22:00,0.63,-0.02,-6.38,-0.62,-5.67,-0.20,-4.62,0.84,-3.34,0.38,-2.00,-1.00,-1.54,-1.49,-0.96,-0.28,-0.80,0.60,-0.67,2.30,-0.36,2.29,-0.62,2.11
2010-06-04 23:00,1.03,-8.87,-4.76,-6.18,-3.53,-2.91,-4.70,-1.38,-5.03,-2.41,-5.17,-5.47,-3.15,-6.34,-1.04,-5.72,-0.36,-3.75,0.46,-3.72,0.25,-2.64,-0.57,-2.67
2010-06-05 00:00,-2.39,-8.20,-4.70,-3.88,-2.41,-1.75,-2.19,-1.06,-3.57,-0.63,-5.72,-1.46,-4.73,-5.55,-1.05,-5.31,-1.78,-3.54,-1.22,-2.96,-0.70,-1.87,-1.24,-1.82
2010-06-05 01:00,-4.08,-11.71,-5.71,-7.92,-2.81,-7.49,-2.44,-6.97,-4.46,-5.06,-6.86,-3.98,-7.14,-5.52,-4.29,-5.63,-4.52,-5.91,-2.00,-5.27,-2.09,-3.53,-3.11,-5.39
2010-06-05 02:00,-4.32,-10.54,-4.44,-7.97,1.18,-6.53,0.75,-6.14,-0.00,-4.27,-1.77,-1.77,-4.82,-2.76,-2.61,-4.62,-1.09,-3.03,-0.93,-2.88,-0.08,-2.21,2.44,-1.58
2010-06-05 03:00,-6.68,-3.52,-6.87,0.70,-1.95,0.26,0.64,-0.75,-0.57,0.88,1.05,4.26,-0.77,6.55,-1.37,5.75,0.42,3.56,-0.24,4.72,2.91,4.29,3.57,4.17
2010-06-05 04:00,-11.66,-0.39,-12.15,7.70,-9.33,4.46,-6.56,-0.36,-6.06,-1.36,-3.28,1.96,-3.01,4.95,-3.76,4.32,-2.95,1.53,-1.38,2.93,-0.53,1.82,-0.09,2.79
2010-06-05 05:00,-7.52,-4.91,-5.23,3.26,-3.01,-0.05,-1.76,-5.73,-0.19,-5.06,1.04,-3.55,-0.57,-1.62,-2.10,-2.07,-1.51,-4.82,0.07,-4.15,1.25,-4.64,1.47,-2.90
2010-06-05 06:00,-10.78,-3.05,-9.90,1.79,-7.88,-3.35,-8.71,-6.92,-6.33,-7.58,-2.43,-7.38,-2.35,-3.71,-4.40,-1.70,-3.78,-3.81,-2.41,-5.29,-3.84,-5.39,-1.44,-4.69
2010-06-05 07:00,-10.66,4.38,-10.03,4.36,-10.94,-0.70,-11.41,-2.30,-9.39,-3.16,-7.10,-2.08,-6.93,2.66,-10.58,2.32,-9.65,-0.84,-8.70,-0.88,-5.89,-2.66,-7.04,-3.00
2010-06-05 08:00,-8.16,-2.39,-4.79,-1.09,-6.58,-4.94,-8.64,-6.80,-7.20,-8.15,-4.85,-9.44,-5.23,-5.28,-6.70,-5.60,-5.36,-6.26,-6.64,-6.52,-6.41,-9.06,-5.77,-9.50
2010-06-05 09:00,-1.21,-1.92,1.85,-2.06,-1.08,-4.48,-4.59,-6.03,-5.09,-8.26,-2.69,-8.60,-2.15,-5.84,-3.41,-5.79,-5.10,-6.08,-4.98,-5.42,-3.27,-6.27,-2.70,-7.15
2010-06-05 10:00,6.30,-3.37,6.46,-5.72,1.06,-5.42,-2.33,-4.85,-3.56,-7.08,-3.75,-8.91,1.73,-8.04,1.64,-5.25,-0.74,-5.32,-2.59,-5.03,-2.27,-5.77,-0.90,-4.74
2010-06-05 11:00,9.09,-9.01,7.29,-10.68,2.35,-8.38,-0.02,-7.40,-2.03,-8.72,-0.57,-10.17,3.30,-9.87,2.43,-6.89,0.14,-5.48,-1.08,-5.94,-0.33,-6.35,1.41,-5.53
2010-06-05 12:00,-0.38,-11.16,-1.34,-12.16,-5.28,-10.09,-6.98,-7.14,-9.72,-7.01,-8.84,-7.90,-5.39,-8.66,-3.63,-7.52,-6.21,-4.42,-8.21,-4.69,-8.46,-5.29,-6.75,-5.41
2010-06-05 13:00,3.17,-17.62,0.83,-14.24,-2.57,-8.67,-2.74,-6.32,-3.63,-5.75,-3.91,-7.29,-1.25,-9.64,0.33,-9.70,-0.47,-7.64,-2.09,-6.03,-2.89,-5.43,-1.63,-7.25
2010-06-05 14:00,2.10,-18.24,1.36,-17.11,-0.73,-8.55,-1.16,-5.65,-2.59,-3.99,-3.09,-4.76,-1.18,-6.28,1.34,-7.42,1.61,-5.15,1.02,-3.14,0.44,-1.85,1.78,-3.23
2010-06-05 15:00,1.13,-13.84,0.87,-16.52,0.13,-9.34,2.01,-5.45,1.30,-3.37,-1.10,-2.30,-0.49,-2.96,1.36,-5.02,3.30,-4.87,5.66,-2.62,6.35,-1.06,5.16,-0.89
2010-06-05 16:00,-3.94,-4.69,-7.12,-8.44,-4.94,-5.20,-0.54,0.05,0.89,2.66,1.14,4.29,1.16,3.15,1.89,1.39,3.73,2.55,5.03,3.45,6.03,4.68,5.46,3.78
2010-06-05 17:00,-7.35,-6.94,-11.48,-7.42,-10.64,-7.07,-4.40,-5.25,-0.22,-4.23,1.27,-3.28,-0.54,-3.49,-0.12,-4.93,2.14,-3.75,3.96,-3.22,3.67,-2.57,3.22,-3.54
2010-06-05 18:00,-9.06,8.19,-13.28,6.95,-13.72,8.80,-6.26,7.86,-2.58,5.60,-1.65,6.71,-1.48,8.63,-2.88,6.66,-0.74,6.45,1.29,6.63,3.06,7.35,2.04,7.99
2010-06-05 19:00,-12.06,8.46,-13.05,8.27,-12.50,8.54,-9.42,5.48,-5.94,1.08,-4.23,1.99,-2.34,3.38,-3.61,3.43,-4.07,2.15,-1.72,0.54,-0.48,0.59,1.15,1.06
2010-06-05 20:00,-8.39,-0.89,-11.57,0.37,-9.09,-0.99,-7.77,-4.77,-6.84,-8.67,-5.73,-9.28,-2.86,-8.75,-3.01,-6.82,-4.84,-6.62,-4.55,-9.04,-3.75,-9.64,-1.85,-8.98
2010-06-05 21:00,-2.30,2.87,-7.03,4.09,-8.91,-0.52,-9.48,-5.69,-10.41,-9.30,-10.30,-9.68,-9.61,-9.89,-8.41,-10.07,-8.99,-9.51,-9.18,-11.02,-7.76,-11.96,-6.28,-11.32
2010-06-05 22:00,-3.93,-0.11,-6.17,0.80,-9.95,-3.74,-13.20,-6.88,-14.81,-7.77,-14.39,-8.17,-13.69,-7.34,-12.87,-7.30,-11.84,-6.90,-12.15,-8.34,-10.25,-8.42,-9.61,-7.39
2010-06-05 23:00,4.76,-12.36,3.69,-12.26,-2.71,-14.96,-6.80,-15.22,-7.49,-17.51,-6.51,-18.36,-6.50,-17.32,-5.89,-16.20,-3.49,-13.73,-2.86,-13.03,-2.83,-13.85,-2.81,-12.49
2010-06-06 00:00,1.84,-4.88,-1.44,-4.69,-8.68,-4.52,-10.90,-4.75,-8.96,-6.06,-8.23,-6.05,-9.06,-6.09,-10.30,-6.45,-9.36,-5.76,-7.94,-4.20,-7.86,-3.76,-6.69,-2.79
2010-06-06 01:00,7.00,-10.04,2.87,-8.02,-4.38,-4.62,-5.77,-7.00,-4.52,-6.64,-4.77,-4.00,-7.52,-4.91,-7.52,-4.91,-5.93,-3.61,-6.27,-3.50,-6.40,-2.70,-5.20,-0.38
2010-06-06 02:00,3.68,-20.07,2.68,-15.57,-2.90,-11.47,-5.40,-10.75,-4.87,-9.34,-4.27,-6.77,-6.19,-5.56,-6.35,-5.71,-6.15,-5.34,-5.40,-5.75,-5.48,-6.19,-4.76,-6.18
2010-06-06 03:00,3.13,-9.29,5.71,-9.90,3.17,-4.07,-1.27,-1.00,-1.20,-1.60,0.49,0.46,-0.07,1.65,-0.40,1.03,-0.71,3.13,0.95,3.51,0.84,4.62,1.22,4.73
2010-06-06 04:00,-2.48,-13.96,-3.52,-17.18,0.37,-15.52,-1.41,-9.79,-2.65,-8.38,-0.69,-6.56,-1.22,-6.50,-2.42,-5.61,-2.16,-3.65,1.17,-1.85,0.04,1.99,-0.02,-0.63
2010-06-06 05:00,-5.82,-3.26,-8.78,-7.05,-5.50,-5.78,-4.96,-1.56,-3.36,0.79,-2.91,2.48,-2.80,3.87,-4.24,5.95,-1.12,8.11,1.11,8.66,1.16,9.92,1.74,9.37
2010-06-06 06:00,-9.28,-11.36,-8.73,-13.60,-8.29,-15.13,-7.35,-13.71,-4.49,-9.96,-3.93,-9.38,-2.78,-8.31,-1.68,-6.01,1.01,-5.23,2.29,-3.91,3.49,-3.04,2.59,-3.51
2010-06-06 07:00,-10.53,6.09,-9.99,3.54,-9.83,1.92,-6.82,0.51,-2.27,3.50,-2.15,2.71,-1.93,3.39,-2.06,5.96,0.17,7.24,2.93,7.42,5.60,7.58,4.99,5.73
2010-06-06 08:00,-11.81,10.09,-9.21,7.62,-9.95,5.53,-6.85,3.10,-5.05,3.00,-4.60,-0.30,-4.64,1.25,-3.91,3.75,-3.39,3.39,-0.23,3.27,0.94,1.42,1.51,1.59
2010-06-06 09:00,-5.32,14.28,-3.16,10.43,-5.65,9.70,-4.76,9.86,-3.64,6.02,-1.86,3.52,-0.55,2.96,-0.65,3.66,-0.09,2.79,-0.33,0.42,2.55,0.54,2.48,0.41
2010-06-06 10:00,0.60,3.30,-1.07,0.10,-3.99,-1.69,-6.41,-4.79,-6.55,-6.81,-4.45,-6.51,-4.73,-6.28,-3.62,-4.71,-4.22,-4.46,-4.75,-7.64,-3.76,-9.23,-1.17,-8.47
2010-06-06 11:00,4.19,-1.49,2.15,-2.71,0.07,-2.38,-3.00,-4.00,-7.35,-7.99,-6.52,-10.14,-5.44,-10.24,-5.03,-10.22,-7.42,-11.34,-9.99,-13.23,-7.53,-13.45,-3.65,-11.38
2010-06-06 12:00,9.19,-13.25,5.36,-13.33,4.57,-10.64,0.25,-11.18,-3.76,-14.23,-3.33,-14.62,-1.64,-14.34,-0.45,-14.51,-1.09,-14.07,-2.71,-13.19,-3.13,-11.75,-0.29,-12.90
2010-06-06 13:00,5.96,-13.26,5.24,-11.49,3.87,-8.97,-1.33,-7.58,-3.40,-10.47,-1.51,-10.86,-0.31,-9.26,-0.83,-10.35,-0.69,-10.10,-3.19,-9.06,-3.21,-8.96,-3.15,-8.84
2010-06-06 14:00,6.31,-8.05,2.43,-8.67,3.17,-8.35,2.44,-5.85,-0.33,-4.58,-1.88,-6.39,-1.15,-5.34,-0.93,-3.60,-1.87,-4.30,-4.10,-3.07,-4.53,-3.41,-3.86,-1.75
2010-06-06 15:00,4.60,-12.51,3.82,-12.01,3.22,-12.08,3.43,-9.94,2.77,-8.77,0.61,-9.20,1.41,-8.76,2.63,-7.57,2.06,-6.69,0.95,-4.31,1.33,-3.47,2.91,-1.75
2010-06-06 16:00,0.16,-8.39,1.45,-12.08,1.70,-10.44,2.32,-10.78,1.70,-6.90,0.83,-5.70,1.94,-4.85,3.26,-4.36,3.89,-2.61,3.26,-0.09,3.50,1.23,5.50,3.28
2010-06-06 17:00,-2.73,-11.32,-2.77,-11.54,-2.12,-10.93,-1.74,-11.14,-0.46,-10.55,-1.59,-8.80,0.51,-6.73,1.38,-7.20,2.27,-5.27,2.43,-1.89,3.24,1.05,5.46,0.56
2010-06-06 18:00,-15.97,-12.38,-15.94,-11.75,-16.93,-12.66,-16.15,-13.16,-12.56,-11.90,-11.98,-11.42,-11.16,-10.66,-10.54,-10.27,-8.21,-8.97,-7.22,-5.97,-6.29,-2.36,-5.96,-2.06
2010-06-06 19:00,-13.04,-8.50,-11.20,-8.38,-14.23,-9.06,-14.10,-10.58,-11.46,-10.33,-9.53,-8.73,-8.70,-8.38,-8.63,-8.98,-6.59,-7.76,-5.46,-5.56,-3.81,-1.95,-2.92,0.71
2010-06-06 20:00,-11.11,-2.62,-11.18,-5.25,-13.69,-3.79,-14.60,-4.58,-13.29,-4.09,-10.81,-2.22,-9.67,-2.20,-9.77,-1.50,-7.80,-2.18,-4.47,-1.83,-2.16,1.35,0.34,4.89
2010-06-06 21:00,-6.76,-8.96,-8.12,-10.71,-8.72,-12.24,-9.08,-12.76,-6.90,-12.75,-4.55,-10.08,-4.73,-8.05,-4.31,-7.72,-2.51,-8.86,0.89,-8.39,5.07,-6.64,5.60,-5.97
2010-06-06 22:00,-7.05,-3.31,-10.55,-6.32,-11.40,-6.98,-12.38,-6.85,-11.96,-7.56,-10.11,-6.40,-8.78,-4.55,-9.53,-4.45,-8.98,-5.65,-6.64,-5.07,-3.77,-3.50,-3.65,-4.61
2010-06-06 23:00,-0.35,0.84,-3.84,-1.12,-3.51,-2.59,-4.61,-2.39,-4.29,-3.13,-2.97,-4.10,0.87,-2.98,1.53,-2.37,0.51,-4.23,1.60,-3.70,3.02,-3.91,4.84,-3.38
2010-06-07 00:00,0.86,-4.02,1.42,-6.98,-0.94,-8.19,-1.75,-7.91,-3.27,-8.77,-2.61,-10.66,1.15,-10.71,1.45,-10.31,0.12,-12.16,0.91,-12.03,3.12,-13.15,4.26,-10.63
2010-06-07 01:00,1.92,-7.98,1.60,-11.51,1.58,-12.87,1.16,-12.89,-0.55,-15.58,-2.03,-16.22,-2.12,-17.71,-1.85,-18.25,-0.84,-16.71,-1.02,-15.40,0.21,-14.63,1.51,-13.73
2010-06-07 02:00,-0.54,-12.04,-0.60,-12.57,-1.60,-11.62,-4.29,-12.40,-5.56,-13.40,-7.33,-14.85,-8.43,-16.43,-7.81,-16.04,-6.86,-16.07,-4.98,-13.96,-4.17,-13.51,-4.26,-13.23
2010-06-07 03:00,5.31,-9.60,5.93,-10.66,7.65,-6.20,6.69,-6.48,4.71,-6.12,2.18,-6.03,1.42,-6.98,-0.04,-6.99,-0.84,-7.12,0.72,-4.58,1.61,-2.65,0.66,-1.89
2010-06-07 04:00,-0.72,-16.05,0.70,-17.72,2.11,-16.47,2.58,-15.60,1.50,-14.04,0.78,-13.00,0.24,-12.22,-1.30,-11.22,-2.28,-10.36,-2.35,-7.98,-2.15,-5.84,-2.31,-4.22
2010-06-07 05:00,-1.30,-9.44,-2.27,-13.27,1.02,-11.68,1.19,-9.76,0.21,-8.90,-0.19,-8.60,-0.06,-8.35,-0.70,-6.87,-1.13,-5.75,-0.74,-2.82,-0.66,0.85,0.73,1.78
2010-06-07 06:00,2.29,-6.41,1.15,-8.94,5.16,-6.62,5.42,-6.44,4.46,-5.26,6.05,-5.73,6.67,-4.30,5.82,-3.51,4.82,-2.24,6.84,-0.60,9.12,4.44,8.39,5.16
2010-06-07 07:00,-12.17,-2.20,-14.66,-3.66,-10.81,-2.95,-8.13,-2.48,-8.78,-2.05,-8.22,-1.47,-7.87,-1.57,-7.02,0.14,-7.40,1.07,-5.55,2.23,-3.69,3.71,-4.40,5.07
2010-06-07 08:00,-12.47,-1.88,-11.47,-3.88,-9.03,-7.23,-6.09,-8.76,-5.49,-7.96,-3.01,-6.82,-3.40,-7.97,-2.22,-5.96,-1.72,-6.23,-1.38,-4.88,2.33,-3.69,2.97,-0.90
2010-06-07 09:00,-2.18,1.76,-3.54,0.01,-2.08,-4.99,-0.77,-6.27,0.90,-6.30,1.90,-5.80,1.67,-5.35,2.96,-3.72,1.49,-3.31,2.31,-2.55,4.59,-1.78,5.90,-0.57
2010-06-07 10:00,2.39,-4.61,3.12,-4.61,1.51,-10.50,2.14,-13.02,3.38,-13.70,4.04,-13.82,4.87,-13.79,5.99,-14.08,5.50,-13.81,4.93,-12.94,5.41,-12.80,8.24,-11.45
2010-06-07 11:00,-9.03,3.82,-6.97,-1.10,-8.78,-6.32,-11.04,-10.00,-11.31,-10.50,-9.50,-10.28,-9.95,-10.51,-8.30,-11.18,-7.03,-11.22,-7.97,-10.15,-8.84,-7.90,-9.05,-7.54
2010-06-07 12:00,4.36,-3.52,2.94,-6.85,-2.68,-10.79,-7.10,-13.12,-6.77,-14.27,-6.15,-14.61,-6.82,-15.85,-7.11,-15.94,-8.10,-16.85,-9.63,-17.30,-9.75,-15.46,-7.04,-12.27
2010-06-07 13:00,2.90,-11.34,4.03,-11.64,-0.28,-14.36,-4.40,-12.75,-4.79,-12.13,-6.71,-12.69,-6.78,-12.82,-6.23,-12.55,-8.42,-11.84,-6.94,-11.20,-5.98,-7.69,-7.50,-6.78
2010-06-07 14:00,8.53,-17.41,10.63,-17.10,7.75,-17.95,8.66,-16.43,7.25,-13.40,6.43,-13.44,4.93,-12.94,3.99,-12.59,2.74,-12.22,2.63,-11.84,3.12,-10.65,0.91,-8.80
2010-06-07 15:00,-2.60,-10.35,-1.63,-11.52,0.62,-12.11,-0.26,-11.22,-1.15,-8.88,-2.19,-7.83,-2.68,-6.51,-2.44,-5.92,-3.59,-5.53,-4.24,-4.37,-6.33,-4.35,-6.61,-2.35
2010-06-07 16:00,4.54,-6.28,2.17,-13.85,9.21,-15.12,7.71,-14.62,7.19,-13.53,6.66,-11.39,6.16,-11.43,7.31,-10.05,7.55,-8.00,6.44,-6.35,5.12,-6.11,3.92,-4.48
2010-06-07 17:00,4.86,-2.02,-1.31,-7.26,6.50,-10.81,3.89,-9.39,3.37,-9.75,3.80,-7.64,4.73,-5.49,6.54,-4.55,6.48,-3.63,6.37,-2.20,5.49,-2.04,4.50,0.28
2010-06-07 18:00,-0.05,3.74,-5.91,3.48,0.71,-3.13,-1.41,-3.02,-2.99,-2.23,-2.43,0.12,-2.27,1.00,-0.97,1.18,0.00,1.77,0.42,3.56,-1.65,4.93,-1.43,6.67
2010-06-07 19:00,0.18,-0.26,-3.97,-4.60,-1.44,-7.19,-6.68,-6.02,-7.52,-6.37,-5.19,-5.06,-4.79,-2.86,-3.35,-3.17,-1.79,-2.09,-2.00,-0.27,-3.11,0.65,-2.60,2.47
2010-06-07 20:00,-3.40,-4.75,-4.77,-10.04,-3.02,-8.91,-7.56,-7.63,-8.58,-6.99,-8.16,-4.89,-5.05,-4.81,-4.05,-4.31,-4.02,-3.36,-3.39,-2.66,-2.92,-1.06,-2.39,-0.39
2010-06-07 21:00,-10.30,1.36,-8.64,-1.80,-7.47,-0.10,-12.00,1.49,-11.78,1.45,-10.64,1.47,-9.60,2.19,-9.22,2.31,-9.38,2.15,-9.20,3.67,-9.29,4.68,-7.85,5.10
2010-06-07 22:00,-10.25,2.63,-11.06,-3.86,-9.31,-8.77,-10.55,-7.04,-11.85,-4.72,-11.91,-4.52,-9.73,-3.78,-7.26,-2.96,-8.90,-2.71,-9.46,-3.29,-9.20,-3.11,-7.85,-3.44
2010-06-07 23:00,-0.98,0.86,-3.23,-0.01,-5.84,1.10,-9.41,-0.25,-9.08,-0.67,-6.02,-0.09,-4.82,2.24,-2.56,2.69,-2.07,2.10,-2.45,3.03,-2.37,3.47,-2.37,1.70
2010-06-08 00:00,-3.19,-5.83,-1.91,-7.02,-2.94,-6.69,-4.01,-8.36,-5.32,-11.04,-3.94,-13.24,-2.59,-11.80,-2.88,-11.16,-2.15,-12.61,-2.55,-11.58,-2.61,-10.66,-2.89,-9.70
2010-06-08 01:00,2.47,-6.67,3.80,-6.60,3.68,-4.76,1.76,-5.32,0.31,-8.56,1.65,-9.21,0.33,-4.70,-1.03,-2.18,0.02,-2.91,-0.78,-2.31,-1.09,-3.03,-2.10,-5.30
2010-06-08 02:00,0.88,-10.48,4.27,-10.32,5.37,-8.02,7.62,-6.11,4.81,-7.55,5.18,-8.80,5.10,-9.24,5.83,-7.46,4.33,-7.69,3.72,-7.04,4.65,-5.93,2.76,-5.86
2010-06-08 03:00,0.78,-13.00,1.85,-13.11,8.35,-12.87,10.04,-11.55,9.59,-10.01,7.42,-9.71,4.80,-10.37,3.99,-11.86,3.90,-10.11,4.77,-9.54,4.15,-9.93,2.09,-10.01
2010-06-08 04:00,0.29,-7.42,3.90,-10.84,7.49,-11.35,8.59,-9.05,7.59,-8.51,5.72,-7.81,3.18,-5.53,2.13,-6.57,3.01,-6.73,2.60,-5.70,1.56,-4.96,-0.32,-4.26
2010-06-08 05:00,4.96,-6.99,5.66,-6.89,6.22,-8.08,10.06,-7.69,8.57,-7.91,6.65,-7.43,5.18,-6.30,4.42,-5.48,4.68,-3.53,3.74,-2.45,0.61,-1.38,-1.36,0.75
2010-06-08 06:00,1.08,0.21,2.11,-7.20,4.92,-6.48,4.23,-8.77,7.80,-8.87,8.47,-8.67,6.16,-7.89,5.82,-6.74,5.46,-5.49,5.10,-3.20,4.72,-3.31,2.20,-0.40
2010-06-08 07:00,-2.48,-5.41,-1.45,-10.01,-1.69,-10.60,-0.49,-12.23,2.08,-11.37,0.84,-9.65,-0.41,-8.56,-0.66,-8.42,-0.68,-5.51,-1.71,-5.19,-2.66,-3.38,-2.28,-0.77
2010-06-08 08:00,-4.01,-2.32,-4.80,-7.45,-5.09,-9.30,-2.84,-13.44,-2.53,-10.22,-3.63,-8.25,-4.48,-8.19,-6.00,-9.05,-2.55,-5.54,-1.94,-4.42,-1.81,-2.72,-3.29,-0.86
2010-06-08 09:00,-6.90,-4.20,-7.88,-5.85,-9.41,-7.02,-8.60,-11.58,-5.78,-10.86,-4.51,-8.09,-5.79,-5.86,-5.88,-4.84,-5.67,-4.47,-4.95,-1.97,-5.76,0.09,-5.71,1.35
2010-06-08 10:00,-7.66,-4.43,-12.39,-8.94,-14.11,-9.13,-16.12,-12.22,-13.96,-12.83,-10.60,-10.08,-12.38,-8.62,-12.99,-7.97,-12.45,-5.52,-12.57,-3.68,-13.53,-3.96,-11.96,-3.29
2010-06-08 11:00,-4.91,-2.79,-10.77,-6.28,-11.68,-6.02,-13.93,-6.16,-13.07,-8.41,-9.91,-10.29,-9.49,-8.51,-9.32,-8.04,-7.63,-5.25,-8.58,-4.49,-9.39,-4.93,-8.99,-5.96
2010-06-08 12:00,-2.65,-3.07,-7.91,-5.02,-6.45,-5.01,-10.16,-4.43,-9.32,-7.31,-7.32,-11.31,-6.41,-11.56,-5.66,-10.20,-4.26,-8.23,-3.07,-5.17,-2.93,-3.88,-3.17,-2.70
2010-06-08 13:00,4.08,-5.06,-0.83,-6.08,0.21,-4.63,-0.05,-3.04,0.42,-8.21,-0.16,-10.15,0.57,-9.42,2.61,-8.93,3.13,-7.84,4.07,-4.65,3.38,-2.66,-0.21,-1.42
2010-06-08 14:00,1.46,-7.49,-2.88,-6.89,-2.39,-6.43,-1.49,-7.73,-2.52,-12.41,-2.28,-13.59,-2.35,-11.21,-1.04,-9.99,0.62,-9.61,1.11,-8.43,0.88,-6.93,-0.13,-5.25
2010-06-08 15:00,3.25,-9.68,0.47,-8.72,2.73,-6.49,3.00,-7.04,1.74,-10.22,0.99,-10.86,0.22,-9.31,1.43,-9.17,1.48,-7.90,0.30,-7.10,1.09,-5.52,-0.09,-3.98
2010-06-08 16:00,2.07,-7.42,2.81,-6.05,6.84,-5.92,9.40,-4.34,9.63,-4.79,7.55,-7.27,6.47,-7.17,5.97,-6.17,7.61,-6.42,6.12,-4.88,5.43,-4.66,5.89,-3.38
2010-06-08 17:00,2.55,-6.23,-0.48,-4.41,2.88,-5.93,7.91,-6.75,8.58,-6.55,6.86,-6.02,5.13,-5.79,3.45,-4.31,3.06,-4.42,3.22,-3.54,1.73,-2.72,1.81,-2.28
2010-06-08 18:00,1.49,-4.04,0.33,-0.42,2.21,-2.58,6.47,-6.44,7.05,-7.00,7.23,-4.76,6.29,-3.68,4.60,-2.20,3.78,-2.96,2.22,-1.54,1.70,0.60,1.20,1.60
2010-06-08 19:00,-2.40,1.07,-4.15,2.43,-3.49,0.54,0.43,-2.90,2.10,-3.97,2.91,-1.75,2.10,0.30,-0.86,0.79,-1.72,-0.19,-3.62,0.61,-3.30,2.37,-3.53,3.87
2010-06-08 20:00,4.68,-5.30,1.89,-5.39,1.42,-6.98,3.24,-10.72,4.72,-11.85,6.49,-10.08,6.89,-7.88,4.79,-6.41,2.70,-6.40,1.19,-5.49,1.67,-5.35,2.43,-3.67
2010-06-08 21:00,-4.88,3.16,-5.87,3.70,-6.44,3.85,-6.58,-0.67,-4.89,0.34,-2.80,2.10,-3.27,3.00,-4.78,4.96,-6.80,4.37,-8.66,6.11,-9.75,6.63,-9.18,5.75
2010-06-08 22:00,-14.61,10.42,-7.28,-1.82,-5.25,-5.91,-5.34,-7.40,-4.87,-9.34,-3.29,-9.40,-2.42,-8.11,-3.19,-5.83,-5.68,-5.52,-6.95,-4.01,-9.17,-2.47,-8.92,-4.07
2010-06-08 23:00,-0.34,-1.35,-1.43,-4.38,-0.98,-5.91,-0.87,-8.80,1.85,-8.83,3.02,-8.18,2.34,-5.88,2.23,-3.72,-1.10,-4.07,-2.91,-0.75,-4.53,-0.91,-3.79,-3.09
2010-06-09 00:00,-0.41,-7.52,-1.55,-8.58,-1.65,-7.88,-4.29,-12.40,-3.64,-13.57,-0.37,-13.34,-1.20,-12.64,-2.12,-10.93,-4.29,-8.86,-6.26,-5.68,-7.84,-5.63,-6.15,-4.61
2010-06-09 01:00,-0.10,-7.84,-0.64,-7.06,-3.32,-6.81,-5.67,-8.74,-4.89,-8.20,-1.46,-8.55,-0.61,-7.89,-1.40,-6.24,-0.63,-4.98,0.73,-3.22,0.02,-1.14,-3.84,-0.39
2010-06-09 02:00,-0.12,-11.70,-1.35,-8.94,-1.84,-8.67,-3.64,-9.29,-4.02,-7.63,-1.30,-10.17,-0.78,-10.86,-2.94,-10.24,-3.51,-8.32,-0.89,-5.16,-0.72,-3.96,-1.04,-3.22
2010-06-09 03:00,-0.86,-12.02,-0.17,-12.97,0.10,-7.47,-0.50,-5.04,-2.33,-4.85,-1.16,-5.65,0.82,-6.74,0.44,-6.85,0.76,-4.36,2.25,-4.13,2.48,-3.86,1.71,-3.35
2010-06-09 04:00,1.98,-7.13,-1.61,-12.66,0.47,-7.68,0.66,-5.12,-0.06,-3.35,-0.68,-3.74,1.59,-6.51,0.43,-7.17,0.35,-5.84,2.18,-5.30,3.70,-4.44,2.83,-3.97
2010-06-09 05:00,-6.38,-3.84,-6.73,-7.28,-2.60,-6.80,-0.28,-5.81,1.29,-4.42,0.95,-1.81,2.18,-3.53,0.12,-6.11,-1.19,-4.83,0.06,-4.46,0.44,-4.35,-0.31,-4.99
2010-06-09 06:00,-5.51,0.68,-5.51,-2.55,-4.19,-2.06,-0.94,-1.42,-1.36,-0.71,-0.43,0.40,-0.31,-1.44,-3.27,-2.00,-2.38,-0.07,-1.04,1.05,-1.74,0.95,-1.40,1.57
2010-06-09 07:00,-3.20,0.63,-4.54,-0.50,-3.70,-1.60,-2.36,-2.98,-0.39,-2.93,1.97,-2.45,-0.02,-3.13,-1.88,-2.11,-0.24,0.45,-0.07,1.65,-1.46,2.49,-1.15,3.21
2010-06-09 08:00,-10.10,0.69,-8.26,5.09,-6.78,3.96,-6.23,1.72,-4.05,-2.54,-0.24,-4.86,1.98,-2.86,1.71,0.92,1.33,2.58,1.33,4.35,1.69,4.56,-2.09,5.01
2010-06-09 09:00,-7.89,3.11,-7.40,6.79,-6.96,4.22,-6.67,1.80,-4.46,-0.06,0.33,-1.47,-0.74,-0.32,-0.56,1.19,0.03,2.40,-0.72,2.81,0.23,2.78,-0.53,3.60
2010-06-09 10:00,2.91,5.02,-0.18,6.30,-2.63,5.79,-2.05,0.96,-1.42,-0.83,0.98,-2.63,0.01,-1.46,0.58,-0.56,0.10,0.03,-2.29,-1.09,-3.85,-2.17,-3.39,-0.89
2010-06-09 11:00,-0.10,6.74,-0.41,6.03,1.37,0.30,1.50,-1.23,1.03,-4.60,1.59,-5.79,2.06,-4.19,1.56,-1.42,0.68,-1.26,-0.76,-1.68,-3.33,-2.85,-4.89,-2.89
2010-06-09 12:00,7.09,-4.28,2.49,-2.09,-3.04,-3.49,-3.96,-5.33,-3.87,-7.07,-3.62,-5.43,-3.34,-4.62,-1.89,-3.89,-1.88,-2.11,-3.86,-1.75,-6.19,-3.06,-6.27,-4.23
2010-06-09 13:00,3.18,0.51,6.45,-3.53,1.84,-4.15,-1.72,-4.46,-1.90,-5.97,-2.19,-7.83,-1.34,-7.89,-0.72,-6.46,-0.69,-5.83,-1.87,-4.30,-2.99,-2.96,-3.49,-2.69
2010-06-09 14:00,10.46,-11.53,6.79,-8.96,1.72,-7.31,-1.70,-9.87,-4.30,-13.45,-4.19,-13.83,-2.90,-12.52,-3.67,-12.74,-5.01,-12.09,-4.96,-9.06,-4.64,-7.30,-4.30,-5.95
2010-06-09 15:00,9.53,-15.13,9.57,-9.91,4.33,-7.69,1.75,-9.91,-0.92,-11.83,-5.85,-9.94,-2.16,-10.43,-0.16,-10.15,1.24,-9.95,-0.54,-10.99,-3.68,-12.01,-5.81,-11.49
2010-06-09 16:00,7.13,-18.34,6.33,-12.74,3.79,-10.46,2.19,-11.76,-3.87,-7.07,-3.38,-6.61,-1.31,-7.26,-0.23,-7.78,-1.79,-8.13,-2.89,-8.66,-1.00,-6.54,1.65,-4.21
2010-06-09 17:00,1.74,-17.72,6.30,-17.64,3.66,-16.43,4.95,-14.80,3.12,-13.15,0.51,-6.73,1.32,-7.01,2.44,-7.62,1.85,-8.11,2.15,-7.71,4.48,-6.40,2.38,-6.70
2010-06-09 18:00,-4.81,-10.99,-6.59,-16.30,-5.09,-16.08,0.51,-13.50,1.25,-13.91,1.17,-11.85,1.01,-5.96,1.32,-5.24,1.63,-6.29,0.99,-4.82,1.83,-3.42,3.36,-3.29
2010-06-09 19:00,-6.54,-4.00,-6.64,-7.57,-4.24,-6.87,-0.47,-5.87,-0.62,-6.43,-0.22,-6.00,3.63,-2.07,4.86,1.21,3.78,0.27,3.30,1.17,3.54,2.49,3.07,2.67
2010-06-09 20:00,-2.74,2.95,-8.49,-1.96,-7.29,-3.59,-3.73,-5.05,-1.46,-6.05,-1.42,-5.83,2.17,-4.57,6.01,-1.68,5.58,0.17,5.53,0.68,5.64,2.80,5.61,2.89
2010-06-09 21:00,-6.54,-0.45,-10.89,-4.44,-11.28,-8.09,-11.10,-10.12,-10.46,-9.83,-8.08,-8.72,-1.99,-8.50,-1.20,-8.37,-3.59,-7.30,-3.69,-5.56,-2.26,-3.68,-3.01,-2.55
2010-06-09 22:00,-11.26,17.86,-15.71,16.66,-14.57,13.14,-14.72,12.57,-14.78,13.49,-12.34,12.64,-6.54,10.59,-6.15,10.70,-8.22,11.35,-8.57,12.91,-7.28,12.77,-8.90,12.61
2010-06-09 23:00,1.24,1.09,-4.54,-1.22,-7.51,-3.55,-7.80,-4.68,-2.87,-4.07,1.09,-7.29,1.70,-7.94,-0.06,-5.85,-1.34,-4.66,-1.56,-4.63,-1.43,-6.15,-1.27,-6.00
2010-06-10 00:00,1.80,4.17,-4.99,3.54,-6.38,1.16,-8.59,0.51,-6.14,-0.75,-4.06,-3.58,-2.03,-5.18,-0.90,-5.47,-1.11,-3.34,-1.07,-3.12,-2.57,-4.40,-3.58,-5.21
2010-06-10 01:00,2.81,3.95,-1.78,5.00,-3.44,3.58,-6.97,4.94,-8.35,1.83,-6.89,-0.66,-5.93,-2.15,-5.87,-3.07,-5.17,-1.93,-3.60,0.93,-3.27,3.00,-3.20,4.90
2010-06-10 02:00,4.33,3.35,1.12,2.93,-0.68,3.76,-3.63,2.79,-3.21,-0.42,-1.23,-1.50,-3.55,-3.54,-4.89,-2.16,-5.24,1.18,-2.76,4.09,-1.10,4.47,-1.14,4.98
2010-06-10 03:00,7.28,-6.73,1.54,-2.05,0.09,-2.79,-2.17,-1.47,-2.83,-3.85,-2.57,-6.17,-3.40,-7.25,-4.44,-8.70,-2.46,-8.33,-0.16,-5.15,1.20,-2.67,0.87,-1.20
2010-06-10 04:00,16.16,-10.38,10.07,-4.87,7.77,-2.00,5.51,-3.18,3.70,-4.44,0.83,-5.70,-0.17,-6.20,0.64,-5.02,4.17,-2.85,5.72,-0.31,6.02,1.14,4.89,2.16
2010-06-10 05:00,13.39,-9.11,11.66,-3.88,7.40,-1.07,4.81,-0.05,2.84,-1.88,1.04,-1.05,-0.95,0.04,-2.10,-0.30,0.24,-0.45,2.80,0.40,4.22,1.23,3.50,2.27
2010-06-10 06:00,11.40,-11.56,11.07,-6.87,10.77,-2.27,8.38,-0.15,4.41,0.25,1.51,2.32,-0.56,1.92,0.70,0.83,1.27,1.00,0.62,1.43,0.38,3.34,-1.09,3.74
2010-06-10 07:00,5.22,-9.31,6.87,-4.24,9.11,-0.88,8.70,-0.17,5.05,3.77,3.41,5.79,2.91,5.02,1.45,5.01,1.06,4.58,2.56,4.08,1.12,5.43,0.57,7.67
2010-06-10 08:00,-2.32,-10.58,-1.45,-7.51,0.03,-5.10,0.27,-3.78,-1.85,-1.17,-3.98,1.13,-4.39,3.61,-5.44,2.58,-6.34,1.38,-7.68,0.25,-8.10,0.97,-10.39,2.38